[[{"header":{"parameterUnit":"m.s-1","parameterCategory":1,"la1":30.2991,"la2":30.254,"lo1":-89.0895,"lo2":-89.0444,"dy":0.0017,"dx":0.0017,"nx":28,"ny":28,"refTime":"2025-03-31T21:00:00:Z","depth":0,"parameterNumber":2,"parameterNumberName":"U-component_of_WINDS"},"data":[0,0,0,0,0,0,0,0,0,0,0,0,0,0,0,0,0,0,0,0,0,0,0,0,0,0,0,0,0,0,0,0,0,0,0,0,0,0,0,0,0,0,0,0,0,0,0,0,0,0,0,0,0,0,0,0,0,0,-0.9886,-0.9887,0,-0.9965,-0.9966,-0.9967,-1.0036,-1.0037,-1.0038,-1.0038,-1.0124,-1.0125,-1.0127,0,0,0,0,0,0,0,0,0,0,0,0,0,-0.9795,-0.9796,-0.9886,-0.9887,-0.9888,-0.9965,-0.9966,-0.9967,-1.0036,-1.0037,-1.0038,-1.0039,-1.0123,-1.0125,-1.0127,0,0,0,0,0,0,0,0,0,0,0,0,0,-0.985,-0.9797,-0.9886,-0.9931,-0.9936,-0.9965,-0.9966,-0.9968,-1.0036,-1.0037,-1.0038,-1.0039,-1.0123,-1.0125,-1.0127,-1.0119,0,0,-1.0134,-1.0135,0,0,0,0,0,0,0,0,-0.9847,-0.9854,-0.9924,-0.9928,-0.9934,-0.9992,-0.9966,-1.0019,-1.0035,-0.9998,-1.0038,-1.004,-1.0079,-1.0085,-1.0098,-1.0123,-1.0126,-1.0135,-1.0136,-1.0137,-1.0138,0,0,0,0,0,0,0,-0.9843,-0.9851,-0.9918,-0.9925,-0.9931,-0.9948,-0.9957,-0.9976,-1.0031,-1.0001,-1.0007,-1.0015,-1.0082,-1.0095,-1.01,-1.0128,-1.0135,-1.0137,-1.0138,-1.0139,-1.0145,-1.0144,0,0,0,0,0,0,-0.9832,-0.9847,-0.9915,-0.992,-0.9892,-0.9949,-0.9959,-0.9972,-1.0031,-1.0041,-1.0014,-1.0018,-1.0091,-1.0097,-1.0104,-1.0095,-1.0137,-1.0139,-1.0141,-1.0146,-1.0145,-1.0143,0,0,0,0,0,0,-0.983,-0.9837,-0.9912,-0.9885,-0.9896,-0.9949,-0.9963,-0.9973,-0.9986,-1.0041,-1.0051,-1.0017,-1.0092,-1.01,-1.0113,-1.0099,-1.014,-1.0142,-1.0148,-1.0146,-1.0144,-1.0078,0,0,0,0,0,0,-0.9827,-0.9836,-0.9834,-0.9884,-0.9897,-0.992,-0.9963,-0.9974,-0.999,-0.9996,-1.0046,-1.0056,-1.0093,-1.0109,-1.0115,-1.0103,-1.0144,-1.0149,-1.0147,-1.0145,-1.0082,-1.0074,-1.0068,0,0,0,0,0,-0.9823,-0.9814,-0.9833,-0.9841,-0.9895,-0.9919,-0.9926,-0.9969,-0.9988,-0.9986,-1.002,-1.0054,-1.0099,-1.011,-1.0118,-1.0105,-1.015,-1.0147,-1.0145,-1.0085,-1.0076,-1.0068,0,0,0,0,0,0,-0.9763,-0.9822,-0.9844,-0.985,-0.9879,-0.993,-0.9929,-0.9958,-0.9983,-0.9988,-1.004,-1.0051,-1.0057,-1.0083,-1.0094,-1.0098,-1.0129,-1.0128,-1.0081,-1.0073,-1.0066,-1.006,-1.0146,0,0,0,0,0,-0.975,-0.9764,-0.9815,-0.9816,-0.9829,-0.9876,-0.9888,-0.9918,-0.995,-0.9963,-0.9999,-1.0029,-1.005,-1.0063,-1.0085,-1.0085,-1.0096,-1.008,-1.0073,-1.0067,-1.0066,-1.0064,-1.0057,-1.0134,-1.0134,-1.0134,0,0,-0.9725,-0.9758,-0.9765,-0.9804,-0.983,-0.9843,-0.9886,-0.9899,-0.9909,-0.9966,-0.9979,-1.0005,-1.0043,-1.0048,-1.0053,-1.007,-1.0046,-1.0064,-1.0058,-1.006,-1.006,-1.0053,-1.0046,-1.0132,-1.0133,-1.0133,0,0,-0.9685,-0.9712,-0.9714,-0.9737,-0.9774,-0.9805,-0.9805,-0.9851,-0.987,-0.9883,-0.9925,-0.9937,-0.9973,-0.9997,-1.0013,-0.9976,-1.0007,-0.9982,-0.9945,-0.9943,-0.9937,-0.9932,-0.9916,-0.991,-0.998,-0.998,-0.998,0,-0.9649,-0.967,-0.9712,-0.9721,-0.9736,-0.9784,-0.9786,-0.9807,-0.985,-0.9859,-0.9877,-0.9919,-0.9948,-0.9958,-0.9948,-0.9961,-0.9961,-0.9977,-0.9934,-0.9929,-0.9925,-0.9911,-0.9905,-0.9976,-0.9977,-0.9977,-0.9977,0,-0.9622,-0.9635,-0.9633,-0.9669,-0.9684,-0.969,-0.9732,-0.9742,-0.9769,-0.9797,-0.9808,-0.9844,-0.9872,-0.9877,-0.9905,-0.9889,-0.9898,-0.9924,-0.9957,-0.9913,-0.9901,-0.9896,-0.9971,-0.9972,-0.9973,-0.9974,0,0,-0.955,-0.9606,-0.9604,-0.9619,-0.9661,-0.9672,-0.9678,-0.9704,-0.971,-0.9737,-0.9742,-0.9768,-0.9791,-0.981,-0.984,-0.9838,-0.9802,-0.9865,-0.9866,-0.985,-0.9784,-0.9763,-0.9756,-0.9823,-0.9822,-0.9822,-0.978,0,-0.9516,-0.9528,-0.9564,-0.9566,-0.9577,-0.962,-0.9625,-0.9651,-0.9676,-0.969,-0.9719,-0.9735,-0.9765,-0.9776,-0.9776,-0.9807,-0.979,-0.981,-0.9828,-0.9828,-0.9816,-0.975,-0.973,-0.9689,-0.9776,-0.9775,-0.9774,0,-0.9479,-0.9498,-0.95,-0.9537,-0.9543,-0.9547,-0.957,-0.9583,-0.9612,-0.963,-0.9647,-0.968,-0.9687,-0.9716,-0.9727,-0.9739,-0.9748,-0.9764,-0.9763,-0.9767,-0.9799,-0.975,-0.9678,-0.9671,-0.9767,-0.9768,-0.9769,0,-0.9423,-0.9451,-0.9454,-0.9466,-0.951,-0.9511,-0.9529,-0.9559,-0.957,-0.9591,-0.9598,-0.962,-0.9632,-0.9648,-0.9685,-0.9703,-0.9689,-0.9723,-0.9704,-0.9703,-0.97,-0.97,-0.9626,-0.9707,-0.9707,-0.9707,-0.9707,0,-0.9381,-0.938,-0.9429,-0.9431,-0.943,-0.9471,-0.9469,-0.9491,-0.9516,-0.9523,-0.9563,-0.9568,-0.9616,-0.9627,-0.9656,-0.9657,-0.9663,-0.9678,-0.9685,-0.9674,-0.9671,-0.968,-0.9684,-0.9706,-0.9706,-0.9706,-0.9706,0,-0.932,-0.9353,-0.9359,-0.9398,-0.9407,-0.9404,-0.9438,-0.9441,-0.9466,-0.9474,-0.9478,-0.9519,-0.9533,-0.957,-0.9596,-0.9614,-0.9608,-0.9623,-0.9597,-0.9602,-0.958,-0.9581,-0.951,-0.9501,-0.9588,-0.9587,-0.9586,0,-0.9291,-0.929,-0.9327,-0.9333,-0.9348,-0.9359,-0.9369,-0.9407,-0.9416,-0.9446,-0.9445,-0.9461,-0.9476,-0.9496,-0.9528,-0.9546,-0.9561,-0.9534,-0.9564,-0.9551,-0.9558,-0.9557,-0.9556,-0.9528,-0.9527,-0.9526,-0.9525,0,-0.9234,-0.9249,-0.9262,-0.9279,-0.9289,-0.9305,-0.9323,-0.9326,-0.9369,-0.9377,-0.939,-0.9401,-0.9423,-0.9439,-0.946,-0.948,-0.9509,-0.9515,-0.9511,-0.95,-0.9484,-0.949,-0.9578,-0.9517,-0.9518,-0.9519,-0.9519,-0.9519,-0.9188,-0.9187,-0.9212,-0.9223,-0.924,-0.9255,-0.9258,-0.9282,-0.9293,-0.9313,-0.9335,-0.9344,-0.9369,-0.9401,-0.9417,-0.9425,-0.9441,-0.9436,-0.9435,-0.9433,-0.9426,-0.9482,-0.9429,-0.9429,-0.943,-0.943,-0.943,0,-0.9132,-0.9148,-0.9158,-0.918,-0.9188,-0.9212,-0.9232,-0.9238,-0.9245,-0.9265,-0.9277,-0.929,-0.9303,-0.9334,-0.935,-0.935,-0.9363,-0.9353,-0.9353,-0.9356,-0.9412,-0.9413,-0.9341,-0.9341,-0.9341,-0.9341,-0.9341,-0.9341,-0.9104,-0.9104,-0.9121,-0.9128,-0.9145,-0.9153,-0.9161,-0.9174,-0.919,-0.9201,-0.9212,-0.9231,-0.9254,-0.9271,-0.9283,-0.9292,-0.9295,-0.928,-0.9292,-0.9344,-0.9353,-0.9361,-0.9362,-0.928,-0.928,-0.9236,-0.9235,-0.9235]},{"header":{"parameterUnit":"m.s-1","parameterCategory":1,"la1":30.2991,"la2":30.254,"lo1":-89.0895,"lo2":-89.0444,"dy":0.0017,"dx":0.0017,"nx":28,"ny":28,"refTime":"2025-03-31T21:00:00:Z","depth":0,"parameterNumber":3,"parameterNumberName":"V-component_of_WINDS"},"data":[0,0,0,0,0,0,0,0,0,0,0,0,0,0,0,0,0,0,0,0,0,0,0,0,0,0,0,0,0,0,0,0,0,0,0,0,0,0,0,0,0,0,0,0,0,0,0,0,0,0,0,0,0,0,0,0,0,0,-2.5777,-2.5777,0,-2.5806,-2.5807,-2.5807,-2.5829,-2.5829,-2.5829,-2.583,-2.5858,-2.5858,-2.5859,0,0,0,0,0,0,0,0,0,0,0,0,0,-2.5737,-2.5738,-2.5777,-2.5777,-2.5778,-2.5806,-2.5807,-2.5807,-2.5829,-2.5829,-2.5829,-2.583,-2.5857,-2.5858,-2.5859,0,0,0,0,0,0,0,0,0,0,0,0,0,-2.5759,-2.5738,-2.5777,-2.5792,-2.5794,-2.5806,-2.5807,-2.5807,-2.5829,-2.5829,-2.5829,-2.583,-2.5857,-2.5858,-2.5859,-2.5858,0,0,-2.5861,-2.5862,0,0,0,0,0,0,0,0,-2.5758,-2.576,-2.5789,-2.5791,-2.5793,-2.5814,-2.5803,-2.5824,-2.5829,-2.5815,-2.583,-2.583,-2.5843,-2.5845,-2.585,-2.5859,-2.586,-2.5861,-2.5862,-2.5862,-2.5862,0,0,0,0,0,0,0,-2.5756,-2.5759,-2.5788,-2.579,-2.5792,-2.5796,-2.58,-2.5807,-2.5827,-2.5817,-2.5818,-2.5822,-2.5844,-2.5849,-2.585,-2.5861,-2.5861,-2.5862,-2.5863,-2.5863,-2.587,-2.5869,0,0,0,0,0,0,-2.5753,-2.5758,-2.5787,-2.5789,-2.5776,-2.5797,-2.5801,-2.5807,-2.5827,-2.583,-2.5821,-2.5822,-2.5847,-2.5849,-2.5851,-2.5851,-2.5862,-2.5863,-2.5864,-2.587,-2.587,-2.5869,0,0,0,0,0,0,-2.5752,-2.5755,-2.5786,-2.5774,-2.5778,-2.5797,-2.5804,-2.5807,-2.5813,-2.5831,-2.5834,-2.5823,-2.5847,-2.585,-2.5856,-2.5852,-2.5863,-2.5864,-2.587,-2.587,-2.5869,-2.585,0,0,0,0,0,0,-2.575,-2.5755,-2.5755,-2.5774,-2.5779,-2.5791,-2.5804,-2.5808,-2.5814,-2.5816,-2.5833,-2.5836,-2.5848,-2.5855,-2.5857,-2.5853,-2.5865,-2.5871,-2.587,-2.587,-2.5851,-2.5849,-2.5847,0,0,0,0,0,-2.5749,-2.5748,-2.5755,-2.5759,-2.578,-2.5791,-2.5794,-2.5808,-2.5814,-2.5814,-2.5825,-2.5835,-2.5852,-2.5855,-2.5858,-2.5854,-2.5871,-2.587,-2.587,-2.5852,-2.5849,-2.5847,0,0,0,0,0,0,-2.5728,-2.5751,-2.5759,-2.5764,-2.5775,-2.5795,-2.5795,-2.5805,-2.5814,-2.5815,-2.5832,-2.5836,-2.5839,-2.5848,-2.585,-2.5854,-2.5863,-2.5863,-2.5848,-2.5846,-2.5844,-2.5842,-2.5866,0,0,0,0,0,-2.5724,-2.5732,-2.5751,-2.5754,-2.5759,-2.5776,-2.5781,-2.5791,-2.5803,-2.5808,-2.582,-2.583,-2.5838,-2.5843,-2.5851,-2.5852,-2.5856,-2.5851,-2.5849,-2.5848,-2.5847,-2.5847,-2.5845,-2.5867,-2.5867,-2.5867,0,0,-2.5716,-2.5729,-2.5733,-2.575,-2.576,-2.5766,-2.578,-2.5786,-2.5791,-2.5809,-2.5815,-2.5824,-2.5837,-2.584,-2.5842,-2.5847,-2.5842,-2.5847,-2.5845,-2.5846,-2.5846,-2.5844,-2.5842,-2.5866,-2.5867,-2.5867,0,0,-2.5704,-2.5716,-2.5719,-2.5728,-2.5743,-2.5754,-2.5755,-2.5773,-2.5779,-2.5786,-2.5799,-2.5804,-2.5817,-2.5826,-2.5831,-2.5822,-2.5831,-2.5824,-2.5813,-2.5813,-2.5812,-2.581,-2.5806,-2.5804,-2.5823,-2.5823,-2.5823,0,-2.5692,-2.5703,-2.5719,-2.5725,-2.5731,-2.5748,-2.5751,-2.5759,-2.5775,-2.5779,-2.5784,-2.5801,-2.581,-2.5815,-2.5813,-2.5818,-2.5818,-2.5822,-2.5811,-2.5809,-2.5808,-2.5804,-2.5803,-2.5822,-2.5823,-2.5823,-2.5823,0,-2.5687,-2.5694,-2.5695,-2.571,-2.5717,-2.5721,-2.5737,-2.5741,-2.5751,-2.5761,-2.5766,-2.5779,-2.5789,-2.5791,-2.5801,-2.5797,-2.58,-2.5808,-2.5817,-2.5805,-2.5801,-2.58,-2.5821,-2.5821,-2.5822,-2.5822,0,0,-2.5663,-2.5687,-2.5687,-2.5694,-2.5711,-2.5716,-2.572,-2.5731,-2.5734,-2.5745,-2.5748,-2.5758,-2.5766,-2.5772,-2.5782,-2.5783,-2.5773,-2.579,-2.5791,-2.5786,-2.5768,-2.5761,-2.5759,-2.5779,-2.5779,-2.5779,-2.5767,0,-2.5653,-2.5662,-2.5676,-2.5681,-2.5687,-2.5702,-2.5706,-2.5716,-2.5726,-2.5732,-2.5742,-2.5749,-2.5758,-2.5762,-2.5763,-2.5774,-2.5769,-2.5775,-2.5781,-2.5781,-2.5776,-2.5758,-2.5751,-2.5739,-2.5766,-2.5766,-2.5765,0,-2.5643,-2.5653,-2.5657,-2.5673,-2.5676,-2.5679,-2.5689,-2.5695,-2.5707,-2.5714,-2.5721,-2.5732,-2.5736,-2.5745,-2.575,-2.5753,-2.5757,-2.5762,-2.5762,-2.5762,-2.5772,-2.5757,-2.5736,-2.5733,-2.5764,-2.5764,-2.5764,0,-2.5623,-2.5638,-2.5642,-2.5648,-2.5667,-2.5668,-2.5676,-2.5688,-2.5693,-2.5702,-2.5705,-2.5714,-2.5718,-2.5725,-2.5737,-2.5743,-2.5741,-2.5751,-2.5745,-2.5745,-2.5744,-2.5743,-2.5722,-2.5748,-2.5748,-2.5748,-2.5748,0,-2.5611,-2.5613,-2.5634,-2.5636,-2.5638,-2.5654,-2.5656,-2.5665,-2.5675,-2.5679,-2.5694,-2.5697,-2.5714,-2.5719,-2.5729,-2.5731,-2.5733,-2.5738,-2.574,-2.5736,-2.5735,-2.5737,-2.5738,-2.5747,-2.5747,-2.5747,-2.5747,0,-2.5589,-2.5604,-2.5609,-2.5626,-2.5631,-2.5631,-2.5646,-2.5648,-2.5659,-2.5663,-2.5665,-2.5681,-2.5687,-2.5701,-2.5711,-2.5717,-2.5716,-2.5722,-2.5713,-2.5714,-2.5707,-2.5707,-2.5686,-2.5683,-2.5711,-2.5711,-2.5711,0,-2.558,-2.5581,-2.5599,-2.5603,-2.561,-2.5616,-2.5621,-2.5637,-2.5641,-2.5654,-2.5655,-2.5662,-2.5669,-2.5678,-2.569,-2.5697,-2.5702,-2.5694,-2.5703,-2.5698,-2.57,-2.5699,-2.5699,-2.5691,-2.5691,-2.5691,-2.569,0,-2.5561,-2.5567,-2.5575,-2.5584,-2.559,-2.5598,-2.5607,-2.5609,-2.5626,-2.563,-2.5637,-2.5642,-2.5653,-2.5659,-2.5668,-2.5675,-2.5685,-2.5688,-2.5686,-2.5682,-2.5676,-2.5677,-2.5706,-2.5688,-2.5688,-2.5688,-2.5688,-2.5689,-2.5544,-2.5546,-2.5558,-2.5565,-2.5574,-2.5581,-2.5584,-2.5595,-2.5601,-2.561,-2.5619,-2.5624,-2.5635,-2.5648,-2.5654,-2.5658,-2.5663,-2.5662,-2.5662,-2.5661,-2.5658,-2.5676,-2.566,-2.566,-2.566,-2.566,-2.5661,0,-2.5525,-2.5533,-2.554,-2.5552,-2.5557,-2.5567,-2.5576,-2.558,-2.5585,-2.5594,-2.56,-2.5607,-2.5614,-2.5626,-2.5633,-2.5634,-2.5638,-2.5635,-2.5635,-2.5636,-2.5654,-2.5654,-2.5631,-2.5631,-2.5631,-2.5631,-2.5631,-2.5631,-2.5515,-2.5519,-2.5527,-2.5534,-2.5542,-2.5548,-2.5552,-2.5559,-2.5566,-2.5574,-2.5579,-2.5587,-2.5597,-2.5605,-2.5611,-2.5614,-2.5616,-2.5611,-2.5615,-2.5632,-2.5635,-2.5637,-2.5637,-2.5611,-2.5611,-2.5596,-2.5596,-2.5596]}]]